TimeMDT,TemperatureF,Dew PointF,Humidity,Sea Level PressureIn,VisibilityMPH,Wind Direction,Wind SpeedMPH,Gust SpeedMPH,PrecipitationIn,Events,Conditions,WindDirDegrees,DateUTC
12:53 AM,69.1,9.0,10,29.64,10.0,WSW,6.9,-,N/A,,Clear,250,2013-06-21 06:53:00
1:53 AM,69.1,10.9,11,29.65,10.0,WSW,6.9,-,N/A,,Clear,250,2013-06-21 07:53:00
2:53 AM,64.0,10.9,13,29.67,10.0,Calm,Calm,-,N/A,,Clear,0,2013-06-21 08:53:00
3:53 AM,64.0,12.0,13,29.69,10.0,WSW,5.8,-,N/A,,Clear,240,2013-06-21 09:53:00
4:53 AM,63.0,10.0,13,29.70,10.0,SW,5.8,-,N/A,,Clear,230,2013-06-21 10:53:00
5:53 AM,61.0,7.0,12,29.72,10.0,West,4.6,-,N/A,,Clear,270,2013-06-21 11:53:00
6:53 AM,64.0,6.1,10,29.73,10.0,WNW,3.5,-,N/A,,Clear,300,2013-06-21 12:53:00
7:53 AM,73.0,8.1,8,29.74,10.0,NNE,4.6,-,N/A,,Clear,20,2013-06-21 13:53:00
8:53 AM,78.1,7.0,7,29.75,10.0,Calm,Calm,-,N/A,,Clear,0,2013-06-21 14:53:00
9:53 AM,82.9,3.9,5,29.75,10.0,WSW,18.4,24.2,N/A,,Clear,250,2013-06-21 15:53:00
10:53 AM,84.0,5.0,5,29.74,10.0,SW,18.4,27.6,N/A,,Clear,230,2013-06-21 16:53:00
11:53 AM,87.1,6.1,5,29.73,10.0,SW,15.0,23.0,N/A,,Clear,230,2013-06-21 17:53:00
12:53 PM,89.1,5.0,4,29.70,10.0,SW,21.9,27.6,N/A,,Clear,220,2013-06-21 18:53:00
1:53 PM,90.0,5.0,4,29.69,10.0,SSW,10.4,25.3,N/A,,Clear,210,2013-06-21 19:53:00
2:53 PM,91.0,3.9,4,29.68,10.0,WSW,13.8,33.4,N/A,,Clear,240,2013-06-21 20:53:00
3:53 PM,91.9,3.9,4,29.65,10.0,SW,19.6,29.9,N/A,,Clear,220,2013-06-21 21:53:00
4:53 PM,91.0,5.0,4,29.65,10.0,WSW,18.4,24.2,N/A,,Clear,250,2013-06-21 22:53:00
5:53 PM,90.0,8.1,5,29.64,10.0,WSW,8.1,28.8,N/A,,Clear,240,2013-06-21 23:53:00
6:53 PM,89.1,9.0,5,29.62,10.0,SSW,15.0,21.9,N/A,,Clear,200,2013-06-22 00:53:00
7:53 PM,88.0,10.0,5,29.60,10.0,South,11.5,21.9,N/A,,Clear,190,2013-06-22 01:53:00
8:53 PM,84.9,10.9,6,29.59,10.0,South,12.7,-,N/A,,Clear,190,2013-06-22 02:53:00
9:53 PM,79.0,10.9,8,29.61,10.0,SW,10.4,-,N/A,,Clear,220,2013-06-22 03:53:00
10:53 PM,75.9,10.9,8,29.62,10.0,SW,11.5,-,N/A,,Clear,220,2013-06-22 04:53:00
11:53 PM,77.0,12.0,8,29.61,10.0,SW,13.8,-,N/A,,Clear,220,2013-06-22 05:53:00